Tracking 18945 objects as of 19-Jan-2018
HD Live streaming from Space Station
objects crossing your sky now

FENGYUN 2B AKM

Track FENGYUN 2B AKM now!


NORAD ID: 26460
Int'l Code: 2000-032C
Perigee: 35,713.3 km
Apogee: 35,937.1 km
Inclination: 12.6 °
Period: 1,437.7 minutes
Semi major axis: 42196 km
RCS: 7.9432 m2 (large)
Launch date: June 25, 2000
Source: People's Republic of China (PRC)
Launch site: Xichang Space Center, China (XSC)

Note: This is a ROCKET BODY
aabbcc
Your satellite tracking list
Your tracking list is empty




NASA's NSSDC Master Catalog

Two Line Element Set (TLE):
1 26460U 00032C   18018.17552207 +.00000111 +00000-0 +00000-0 0  9993
2 26460 012.6177 030.9164 0026517 312.5069 047.3197 01.00159590091410
Source of the keplerian elements: AFSPC